Location: Morosaglia
(42.4360°N, 9.3069°E)
Time: 18:49:46
(UTC+00:00)

Cosmos 1680 Rocket - Pass Details

Date: 07 June 2020
Orbit: 759 x 782 km, 74.1° (Epoch: 02 July)

Event Time Altitude Azimuth Distance (km) Brightness Sun altitude
Rises 03:07:21 0° 189° (S) 3,222 6.3 -6.6°
Reaches altitude 10° 03:09:44 10° 186° (S) 2,304 5.6 -6.3°
Maximum altitude 03:14:54 64° 106° (ESE) 853 4.0 -5.5°
Drops below altitude 10° 03:20:08 10° 26° (NNE) 2,335 7.2 -4.8°
Sets 03:22:33 0° 23° (NNE) 3,270 8.0 -4.4°
